| time (UTC) | temp F | wind direction | speed MPH | gust MPH | rain 1hr in | rain 24hr in | rain mn in | humidity % | barometer mb |
| 20260905091036 | 70 | 234 | 0.0 | 0.0 | 0.00 | 0.26 | 0.00 | 96 | 1010.7 |
| 20260905081036 | 70 | 234 | 0.0 | 0.0 | 0.00 | 0.26 | 0.00 | 96 | 1011.2 |
| 20260905071023 | 71 | 230 | 0.0 | 0.0 | 0.00 | 0.26 | 0.00 | 96 | 1011.6 |
| 20260905061019 | 71 | 229 | 0.0 | 0.0 | 0.00 | 0.26 | 0.00 | 96 | 1012.1 |
| 20260905051011 | 72 | 219 | 0.0 | 0.0 | 0.00 | 0.26 | 0.00 | 95 | 1013.4 |
| 20260905041024 | 72 | 217 | 0.0 | 3.0 | 0.00 | 0.26 | 0.00 | 95 | 1013.9 |
| 20260905031022 | 72 | 200 | 0.0 | 0.0 | 0.00 | 0.26 | 0.26 | 95 | 1014.0 |
| 20260905021032 | 73 | 191 | 6.0 | 6.0 | 0.00 | 0.26 | 0.26 | 94 | 1014.0 |
| 20260905011026 | 73 | 201 | 0.0 | 0.0 | 0.00 | 0.26 | 0.26 | 94 | 1013.0 |
| 20260905001013 | 74 | 178 | 0.0 | 0.0 | 0.01 | 0.26 | 0.26 | 93 | 1012.4 |
| 20260904231031 | 75 | 198 | 0.0 | 0.0 | 0.02 | 0.25 | 0.25 | 92 | 1013.9 |
| 20260904221032 | 76 | 342 | 1.0 | 1.0 | 0.24 | 0.24 | 0.24 | 89 | 1014.5 |
| 20260904211016 | 92 | 5 | 13.0 | 13.0 | 0.00 | 0.00 | 0.00 | 62 | 1012.3 |
| 20260904201025 | 93 | 178 | 2.0 | 2.0 | 0.00 | 0.00 | 0.00 | 61 | 1011.7 |
| 20260904191014 | 98 | 311 | 0.0 | 0.0 | 0.00 | 0.00 | 0.00 | 52 | 1012.7 |
| 20260904181023 | 97 | 9 | 0.0 | 2.0 | 0.00 | 0.00 | 0.00 | 55 | 1013.8 |
| 20260904171029 | 96 | 5 | 0.0 | 1.0 | 0.00 | 0.00 | 0.00 | 55 | 1014.0 |
| 20260904161016 | 95 | 5 | 2.0 | 2.0 | 0.00 | 0.00 | 0.00 | 55 | 1014.5 |
| 20260904151030 | 95 | 209 | 0.0 | 0.0 | 0.00 | 0.00 | 0.00 | 62 | 1014.8 |
| 20260904141028 | 91 | 219 | 0.0 | 0.0 | 0.00 | 0.00 | 0.00 | 66 | 1014.5 |
| 20260904131020 | 87 | 219 | 0.0 | 1.0 | 0.00 | 0.00 | 0.00 | 71 | 1014.4 |
| 20260904121038 | 82 | 200 | 0.0 | 0.0 | 0.00 | 0.00 | 0.00 | 80 | 1014.6 |
| 20260904111049 | 76 | 124 | 0.0 | 0.0 | 0.00 | 0.00 | 0.00 | 91 | 1014.4 |
| 20260904101026 | 76 | 119 | 0.0 | 0.0 | 0.00 | 0.00 | 0.00 | 88 | 1014.4 |